Regional Weather Roundup
Issued by NWS Sioux Falls, SD

Home | Current Version | Previous Version | Text Only | Print | Product List | Glossary On
Versions: 1 2 3 4 5 6 7 8 9 10 11 12 13 14 15 16 17 18 19 20 21 22 23 24 25 26 27 28 29 30 31 32 33 34 35 36 37 38 39 40 41 42 43 44 45 46 47 48 49 50
000
ASUS43 KFSD 292110
RWRFSD

WEATHER ROUNDUP FOR SE SOUTH DAKOTA/SW MINNESOTA/NW IOWA
NATIONAL WEATHER SERVICE SIOUX FALLS SD
400 PM CDT SAT AUG 29 2015

NOTE: "FAIR" INDICATES FEW OR NO CLOUDS BELOW 12,000 FEET WITH NO
SIGNIFICANT WEATHER AND OR OBSTRUCTIONS TO VISIBILITY.


SDZ038>040-050-052>070-292200-
SOUTHEAST SOUTH DAKOTA

CITY           SKY/WX    TMP DP  RH WIND       PRES   REMARKS
BROOKINGS      FAIR      75  64  69 S9        30.03S
CHAMBERLAIN    FAIR      85  70  61 S9        29.96F
HURON          FAIR      83  69  62 S13       29.95S
MADISON        FAIR      75  68  78 S10       30.02F
MITCHELL       FAIR      81  69  67 S13       29.98F
SIOUX FALLS    CLOUDY    74  64  71 S10       30.02F
WINNER         FAIR      91  62  37 S8        29.98F
YANKTON        FAIR      75  66  73 SE8       30.02F
$$

MNZ071-072-080-081-089-090-097-098-292200-
SOUTHWEST MINNESOTA

CITY           SKY/WX    TMP DP  RH WIND       PRES   REMARKS
FAIRMONT       PTSUNNY   68  59  73 S5        30.05F
JACKSON        FAIR      72  64  78 SW6       30.06F
LUVERNE        FAIR      73  63  68 S6        30.05S
MARSHALL       FAIR      77  61  57 S9        30.02F
MONTEVIDEO     FAIR      79  66  65 SW7       30.02S
PIPESTONE      FAIR      73  64  73 S8        30.04S
REDWOOD FALLS  FAIR      74  63  68 SE9       30.02F
TRACY          FAIR      77  65  66 S6        30.02F
WINDOM         FAIR      73  64  73 S7        30.04F
WORTHINGTON    FAIR      72  63  73 S7        30.04F
$$

IAZ001>003-012>014-020>022-031-032-NEZ013-014-SDZ071-292200-
NORTHWEST IOWA

CITY           SKY/WX    TMP DP  RH WIND       PRES   REMARKS
CHEROKEE       FAIR      69  64  84 CALM      30.06S
DENISON        CLOUDY    68  63  83 CALM      30.04F
ESTHERVILLE    FAIR      69  63  81 VRB6      30.06S
LE MARS        FAIR      70  64  83 S6        30.05F
ORANGE CITY    FAIR      70  63  78 S3        30.05F
SHELDON        FAIR      72  64  78 SW5       30.04F
SIOUX CITY     FAIR      71  62  73 E6        30.04F
SPENCER        FAIR      71  62  73 S6        30.05F
STORM LAKE     FAIR      70  64  83 VRB5      30.07F
$$

ABBREVIATIONS USED IN REMARKS
   TC - TEMPERATURE IN CELSIUS
  WCI - WIND CHILL INDEX
   HX - HEAT INDEX
  VSB - VISIBILITY



USA.gov is the U.S. government's official web portal to all federal, state and local government web resources and services.